QPF
0.02 0.01 0.01 0.01 0.02 0.03 0.05 0.05 0.06 0.06 0.05 0.04 0.03 0.02 0.03 0.03 0.04 0.03 0.03 0.03 0.03 0.03 0.04 0.04 0.04 0.03 0.03 0.03 0.04 0.04 0.05 0.06 0.07 0.07 0.07 0.06 0.05 0.04
0.02 0.02 0.01 0.01 0.02 0.03 0.05 0.05 0.05 0.05 0.05 0.04 0.03 0.02 0.02 0.03 0.04 0.04 0.04 0.04 0.03 0.03 0.04 0.04 0.04 0.04 0.03 0.03 0.03 0.03 0.03 0.03 0.04 0.05 0.06 0.07 0.07 0.07
0.01 0.01 0.01 0.01 0.02 0.04 0.06 0.06 0.05 0.05 0.04 0.04 0.03 0.02 0.01 0.02 0.03 0.03 0.04 0.05 0.05 0.05 0.04 0.04 0.04 0.03 0.03 0.03 0.02 0.02 0.02 0.02 0.03 0.03 0.04 0.04 0.05 0.06
0.01 0.01 0.01 0.02 0.03 0.05 0.07 0.08 0.07 0.07 0.06 0.05 0.04 0.03 0.02 0.02 0.02 0.03 0.04 0.04 0.05 0.07 0.06 0.06 0.05 0.04 0.04 0.04 0.03 0.03 0.03 0.03 0.03 0.03 0.03 0.03 0.03 0.04
0.02 0.02 0.02 0.03 0.04 0.05 0.06 0.07 0.07 0.07 0.07 0.07 0.06 0.04 0.02 0.02 0.02 0.03 0.04 0.05 0.06 0.07 0.08 0.07 0.07 0.06 0.05 0.04 0.04 0.03 0.03 0.03 0.02 0.02 0.02 0.02 0.02 0.03
0.02 0.02 0.03 0.03 0.04 0.05 0.07 0.07 0.07 0.07 0.06 0.06 0.06 0.05 0.03 0.03 0.03 0.03 0.04 0.05 0.06 0.07 0.09 0.09 0.09 0.07 0.06 0.05 0.04 0.03 0.03 0.03 0.02 0.02 0.02 0.02 0.02 0.02
0.03 0.03 0.03 0.03 0.03 0.04 0.05 0.06 0.06 0.06 0.06 0.06 0.06 0.05 0.04 0.03 0.03 0.03 0.03 0.04 0.05 0.06 0.07 0.08 0.08 0.08 0.07 0.05 0.04 0.03 0.03 0.02 0.02 0.02 0.02 0.02 0.01 0.01
0.02 0.02 0.02 0.03 0.02 0.03 0.04 0.05 0.05 0.05 0.05 0.05 0.05 0.04 0.04 0.03 0.02 0.03 0.03 0.04 0.04 0.05 0.06 0.06 0.06 0.07 0.06 0.05 0.05 0.04 0.03 0.03 0.03 0.03 0.03 0.03 0.02 0.02
0.02 0.01 0.01 0.01 0.01 0.02 0.03 0.04 0.05 0.05 0.04 0.04 0.04 0.03 0.02 0.02 0.02 0.02 0.03 0.03 0.03 0.04 0.05 0.06 0.05 0.05 0.04 0.04 0.05 0.05 0.04 0.04 0.03 0.03 0.03 0.03 0.03 0.03
0.01 0.01 0.01 0.01 0.01 0.02 0.03 0.03 0.03 0.03 0.03 0.03 0.03 0.02 0.01 0.01 0.02 0.02 0.03 0.04 0.04 0.04 0.04 0.05 0.05 0.04 0.04 0.04 0.05 0.05 0.05 0.05 0.05 0.04 0.04 0.03 0.03 0.03
0.01 0.01 0.01 0.01 0.01 0.02 0.04 0.04 0.03 0.02 0.02 0.03 0.03 0.03 0.03 0.03 0.03 0.04 0.04 0.05 0.06 0.06 0.05 0.04 0.04 0.04 0.04 0.04 0.04 0.04 0.04 0.04 0.04 0.05 0.05 0.04 0.04 0.04
0.01 0.01 0.01 0.01 0.01 0.03 0.04 0.04 0.03 0.02 0.02 0.03 0.03 0.03 0.03 0.04 0.04 0.04 0.04 0.05 0.05 0.05 0.05 0.04 0.04 0.04 0.05 0.05 0.04 0.03 0.03 0.04 0.04 0.04 0.05 0.05 0.05 0.05
0.01 0.01 0.01 0.01 0.01 0.03 0.04 0.04 0.03 0.03 0.04 0.03 0.03 0.04 0.05 0.05 0.06 0.05 0.04 0.04 0.04 0.04 0.03 0.02 0.03 0.03 0.04 0.04 0.04 0.03 0.03 0.03 0.03 0.03 0.04 0.04 0.05 0.05
0.02 0.01 0.01 0.01 0.02 0.03 0.04 0.03 0.03 0.04 0.04 0.05 0.05 0.05 0.05 0.06 0.07 0.06 0.06 0.05 0.04 0.03 0.02 0.02 0.03 0.03 0.03 0.03 0.03 0.02 0.02 0.02 0.02 0.02 0.03 0.03 0.04 0.04
0.02 0.02 0.03 0.03 0.03 0.03 0.03 0.04 0.04 0.04 0.05 0.05 0.05 0.04 0.04 0.05 0.05 0.05 0.06 0.07 0.07 0.06 0.05 0.04 0.03 0.03 0.03 0.03 0.03 0.03 0.03 0.02 0.01 0.01 0.02 0.02 0.03 0.03
0.03 0.03 0.03 0.04 0.03 0.04 0.04 0.04 0.04 0.05 0.05 0.05 0.04 0.04 0.04 0.04 0.05 0.05 0.06 0.07 0.08 0.08 0.08 0.07 0.06 0.06 0.06 0.05 0.04 0.04 0.03 0.03 0.02 0.01 0.01 0.01 0.01 0.02
0.04 0.04 0.04 0.04 0.04 0.04 0.04 0.05 0.05 0.05 0.05 0.05 0.05 0.05 0.05 0.05 0.06 0.05 0.05 0.06 0.06 0.07 0.07 0.08 0.07 0.07 0.07 0.07 0.06 0.06 0.04 0.03 0.03 0.02 0.01 0.01 0.01 0.02
0.04 0.04 0.04 0.04 0.04 0.04 0.04 0.05 0.05 0.05 0.05 0.05 0.06 0.06 0.06 0.07 0.07 0.07 0.07 0.07 0.07 0.06 0.06 0.07 0.07 0.07 0.08 0.08 0.07 0.06 0.05 0.04 0.03 0.03 0.02 0.02 0.02 0.02
0.04 0.04 0.03 0.04 0.04 0.04 0.04 0.04 0.05 0.04 0.04 0.05 0.06 0.06 0.06 0.07 0.08 0.08 0.08 0.08 0.08 0.07 0.07 0.07 0.07 0.07 0.07 0.07 0.07 0.05 0.05 0.04 0.03 0.02 0.02 0.02 0.03 0.02
0.03 0.03 0.03 0.03 0.03 0.04 0.04 0.04 0.05 0.05 0.05 0.05 0.06 0.07 0.07 0.07 0.07 0.07 0.07 0.07 0.07 0.07 0.07 0.07 0.07 0.06 0.06 0.05 0.06 0.06 0.05 0.03 0.03 0.03 0.02 0.02 0.03 0.03
0.02 0.02 0.03 0.03 0.03 0.03 0.04 0.05 0.05 0.06 0.05 0.05 0.06 0.06 0.07 0.07 0.07 0.07 0.06 0.06 0.07 0.07 0.07 0.06 0.06 0.05 0.06 0.07 0.07 0.07 0.06 0.05 0.04 0.04 0.04 0.04 0.04 0.03
0.02 0.02 0.03 0.03 0.03 0.03 0.04 0.05 0.06 0.06 0.05 0.05 0.05 0.05 0.06 0.07 0.07 0.06 0.06 0.06 0.06 0.06 0.06 0.06 0.05 0.06 0.06 0.07 0.07 0.06 0.06 0.07 0.07 0.06 0.05 0.04 0.05 0.05
0.02 0.02 0.02 0.03 0.03 0.03 0.03 0.04 0.05 0.05 0.05 0.05 0.05 0.05 0.05 0.06 0.06 0.06 0.06 0.06 0.06 0.06 0.06 0.06 0.06 0.06 0.06 0.06 0.06 0.05 0.05 0.05 0.05 0.05 0.06 0.05 0.04 0.04
MSLP
1029.14 1029.15 1029.15 1029.15 1029.15 1029.13 1029.09 1029.03 1028.94 1028.82 1028.65 1028.43 1028.16 1027.84 1027.45 1027.02 1026.54 1026.04 1025.54 1025.07 1024.65 1024.31 1024.08 1023.96 1023.94 1024.02 1024.14 1024.28 1024.39 1024.43 1024.38 1024.24 1024.00 1023.70 1023.35 1023.02 1022.71 1022.46
1029.15 1029.10 1029.05 1029.00 1028.95 1028.90 1028.84 1028.78 1028.71 1028.62 1028.50 1028.35 1028.15 1027.91 1027.61 1027.27 1026.90 1026.50 1026.10 1025.72 1025.38 1025.10 1024.91 1024.81 1024.78 1024.82 1024.91 1025.00 1025.06 1025.06 1024.99 1024.84 1024.62 1024.33 1024.02 1023.71 1023.42 1023.18
1029.14 1029.02 1028.90 1028.78 1028.67 1028.57 1028.48 1028.41 1028.35 1028.29 1028.22 1028.13 1028.01 1027.86 1027.67 1027.44 1027.18 1026.90 1026.61 1026.33 1026.07 1025.86 1025.70 1025.60 1025.56 1025.57 1025.59 1025.63 1025.64 1025.62 1025.54 1025.40 1025.20 1024.97 1024.71 1024.45 1024.21 1023.99
1029.12 1028.93 1028.73 1028.54 1028.36 1028.21 1028.08 1027.99 1027.93 1027.88 1027.85 1027.81 1027.76 1027.69 1027.60 1027.47 1027.33 1027.16 1026.98 1026.80 1026.63 1026.48 1026.35 1026.26 1026.20 1026.16 1026.13 1026.11 1026.08 1026.03 1025.95 1025.84 1025.70 1025.54 1025.36 1025.18 1025.00 1024.83
1029.08 1028.82 1028.56 1028.30 1028.06 1027.86 1027.69 1027.57 1027.49 1027.44 1027.42 1027.41 1027.41 1027.40 1027.38 1027.34 1027.29 1027.22 1027.14 1027.06 1026.97 1026.88 1026.79 1026.71 1026.63 1026.56 1026.50 1026.43 1026.36 1026.30 1026.23 1026.15 1026.08 1026.00 1025.91 1025.82 1025.73 1025.62
1028.99 1028.69 1028.38 1028.07 1027.78 1027.53 1027.32 1027.16 1027.05 1026.98 1026.95 1026.95 1026.96 1026.98 1027.00 1027.02 1027.04 1027.06 1027.06 1027.06 1027.05 1027.03 1026.98 1026.93 1026.86 1026.77 1026.68 1026.58 1026.50 1026.42 1026.37 1026.33 1026.32 1026.32 1026.33 1026.34 1026.33 1026.29
1028.84 1028.51 1028.17 1027.82 1027.50 1027.21 1026.97 1026.77 1026.62 1026.52 1026.46 1026.43 1026.42 1026.44 1026.47 1026.52 1026.58 1026.65 1026.72 1026.80 1026.87 1026.91 1026.93 1026.92 1026.88 1026.81 1026.71 1026.61 1026.52 1026.45 1026.40 1026.40 1026.44 1026.51 1026.60 1026.69 1026.76 1026.79
1028.59 1028.25 1027.89 1027.53 1027.19 1026.88 1026.60 1026.37 1026.18 1026.03 1025.93 1025.85 1025.80 1025.78 1025.80 1025.84 1025.91 1026.02 1026.15 1026.29 1026.43 1026.56 1026.66 1026.72 1026.73 1026.70 1026.63 1026.55 1026.46 1026.40 1026.37 1026.40 1026.47 1026.59 1026.73 1026.89 1027.02 1027.11
1028.25 1027.90 1027.53 1027.16 1026.81 1026.48 1026.18 1025.92 1025.69 1025.50 1025.34 1025.21 1025.11 1025.04 1025.01 1025.03 1025.09 1025.21 1025.38 1025.57 1025.79 1026.00 1026.19 1026.33 1026.42 1026.46 1026.46 1026.41 1026.36 1026.32 1026.30 1026.34 1026.43 1026.57 1026.74 1026.94 1027.12 1027.26
1027.81 1027.45 1027.08 1026.71 1026.35 1026.01 1025.70 1025.41 1025.15 1024.92 1024.70 1024.52 1024.35 1024.23 1024.14 1024.12 1024.16 1024.28 1024.46 1024.70 1024.98 1025.27 1025.55 1025.79 1025.99 1026.12 1026.19 1026.22 1026.21 1026.20 1026.21 1026.26 1026.35 1026.49 1026.68 1026.88 1027.09 1027.26
1027.32 1026.95 1026.57 1026.19 1025.82 1025.47 1025.15 1024.85 1024.57 1024.30 1024.05 1023.81 1023.59 1023.40 1023.26 1023.19 1023.19 1023.28 1023.46 1023.72 1024.04 1024.40 1024.77 1025.12 1025.42 1025.66 1025.83 1025.94 1026.01 1026.05 1026.09 1026.16 1026.25 1026.39 1026.57 1026.77 1026.99 1027.18
1026.81 1026.42 1026.03 1025.65 1025.27 1024.92 1024.59 1024.28 1023.98 1023.70 1023.41 1023.13 1022.86 1022.62 1022.42 1022.29 1022.24 1022.29 1022.44 1022.70 1023.05 1023.45 1023.89 1024.32 1024.73 1025.08 1025.36 1025.58 1025.73 1025.85 1025.94 1026.04 1026.15 1026.29 1026.46 1026.65 1026.86 1027.07
1026.34 1025.93 1025.53 1025.14 1024.76 1024.41 1024.08 1023.76 1023.46 1023.16 1022.85 1022.54 1022.23 1021.94 1021.68 1021.48 1021.37 1021.36 1021.47 1021.70 1022.03 1022.45 1022.93 1023.43 1023.92 1024.37 1024.77 1025.10 1025.36 1025.57 1025.73 1025.88 1026.02 1026.17 1026.34 1026.53 1026.74 1026.94
1025.93 1025.51 1025.11 1024.71 1024.34 1023.99 1023.67 1023.36 1023.05 1022.74 1022.42 1022.09 1021.75 1021.41 1021.09 1020.83 1020.64 1020.56 1020.59 1020.75 1021.05 1021.45 1021.93 1022.46 1023.02 1023.56 1024.06 1024.50 1024.87 1025.18 1025.44 1025.66 1025.85 1026.04 1026.22 1026.41 1026.61 1026.80
1025.58 1025.18 1024.79 1024.41 1024.05 1023.71 1023.40 1023.10 1022.80 1022.50 1022.17 1021.82 1021.44 1021.06 1020.69 1020.35 1020.08 1019.90 1019.85 1019.93 1020.14 1020.49 1020.94 1021.47 1022.06 1022.66 1023.24 1023.78 1024.26 1024.68 1025.04 1025.34 1025.61 1025.84 1026.05 1026.25 1026.44 1026.63
1025.29 1024.92 1024.56 1024.21 1023.88 1023.58 1023.29 1023.00 1022.72 1022.42 1022.09 1021.73 1021.33 1020.90 1020.47 1020.06 1019.71 1019.43 1019.27 1019.24 1019.35 1019.62 1020.01 1020.51 1021.08 1021.71 1022.34 1022.96 1023.54 1024.06 1024.52 1024.91 1025.25 1025.54 1025.78 1026.00 1026.19 1026.37
1025.02 1024.71 1024.41 1024.11 1023.82 1023.56 1023.30 1023.04 1022.78 1022.49 1022.16 1021.79 1021.37 1020.91 1020.43 1019.95 1019.51 1019.13 1018.86 1018.71 1018.71 1018.87 1019.18 1019.61 1020.15 1020.77 1021.43 1022.10 1022.74 1023.34 1023.88 1024.36 1024.76 1025.10 1025.38 1025.62 1025.81 1025.98
1024.73 1024.50 1024.26 1024.03 1023.81 1023.59 1023.38 1023.16 1022.92 1022.65 1022.33 1021.95 1021.52 1021.03 1020.51 1019.97 1019.45 1018.99 1018.61 1018.35 1018.24 1018.28 1018.48 1018.83 1019.31 1019.89 1020.54 1021.22 1021.90 1022.55 1023.15 1023.68 1024.14 1024.53 1024.84 1025.09 1025.28 1025.43
1024.38 1024.23 1024.08 1023.93 1023.78 1023.62 1023.46 1023.29 1023.08 1022.83 1022.53 1022.16 1021.72 1021.21 1020.66 1020.08 1019.50 1018.96 1018.50 1018.14 1017.92 1017.85 1017.95 1018.20 1018.60 1019.12 1019.73 1020.40 1021.08 1021.75 1022.38 1022.94 1023.43 1023.84 1024.17 1024.42 1024.61 1024.75
1023.93 1023.87 1023.80 1023.73 1023.66 1023.57 1023.47 1023.34 1023.18 1022.96 1022.68 1022.33 1021.90 1021.39 1020.83 1020.22 1019.61 1019.02 1018.49 1018.05 1017.74 1017.57 1017.57 1017.73 1018.04 1018.49 1019.04 1019.67 1020.33 1020.98 1021.61 1022.19 1022.69 1023.10 1023.44 1023.69 1023.87 1023.99
1023.38 1023.39 1023.39 1023.40 1023.40 1023.38 1023.34 1023.27 1023.15 1022.98 1022.73 1022.41 1022.00 1021.51 1020.96 1020.35 1019.72 1019.10 1018.53 1018.04 1017.66 1017.42 1017.33 1017.41 1017.64 1018.01 1018.49 1019.06 1019.68 1020.31 1020.92 1021.48 1021.98 1022.39 1022.72 1022.96 1023.14 1023.25
1022.70 1022.77 1022.84 1022.91 1022.97 1023.02 1023.04 1023.03 1022.97 1022.84 1022.64 1022.36 1021.99 1021.53 1021.00 1020.42 1019.80 1019.18 1018.59 1018.06 1017.64 1017.35 1017.20 1017.20 1017.36 1017.66 1018.09 1018.60 1019.17 1019.76 1020.34 1020.88 1021.36 1021.77 1022.09 1022.32 1022.49 1022.59
1021.90 1022.01 1022.12 1022.24 1022.36 1022.47 1022.55 1022.59 1022.59 1022.52 1022.38 1022.15 1021.83 1021.42 1020.93 1020.38 1019.79 1019.19 1018.61 1018.08 1017.64 1017.31 1017.12 1017.08 1017.18 1017.43 1017.79 1018.26 1018.78 1019.34 1019.89 1020.41 1020.88 1021.27 1021.58 1021.82 1021.98 1022.08
Thickness
5463 5463 5463 5464 5464 5466 5467 5467 5467 5467 5472 5477 5479 5481 5482 5482 5483 5484 5485 5485 5487 5488 5489 5490 5491 5492 5493 5494 5496 5497 5498 5498 5498 5500 5500 5501 5503 5504
5450 5450 5450 5451 5452 5453 5454 5455 5456 5456 5457 5463 5465 5467 5467 5467 5468 5470 5470 5472 5472 5473 5475 5476 5476 5477 5478 5479 5481 5482 5483 5484 5485 5487 5488 5489 5490 5491
5437 5437 5438 5438 5438 5439 5440 5441 5442 5442 5444 5448 5448 5451 5452 5453 5454 5455 5456 5457 5458 5459 5460 5461 5462 5463 5464 5465 5467 5468 5470 5471 5472 5474 5475 5476 5477 5479
5424 5424 5424 5424 5425 5425 5426 5427 5428 5428 5429 5432 5434 5435 5437 5438 5439 5440 5441 5442 5443 5444 5446 5447 5448 5449 5450 5451 5453 5454 5456 5457 5458 5460 5462 5464 5465 5465
5411 5411 5411 5410 5411 5410 5411 5412 5413 5415 5415 5415 5418 5420 5422 5423 5424 5424 5425 5426 5427 5429 5431 5432 5434 5435 5436 5437 5439 5441 5442 5444 5445 5446 5447 5449 5450 5452
5397 5397 5396 5397 5397 5397 5398 5398 5399 5400 5400 5400 5402 5405 5406 5407 5407 5408 5409 5410 5411 5413 5415 5416 5418 5419 5421 5423 5425 5427 5428 5429 5430 5432 5434 5435 5436 5438
5383 5382 5382 5383 5383 5384 5385 5385 5385 5385 5385 5385 5387 5389 5390 5390 5392 5392 5393 5394 5395 5397 5399 5401 5403 5405 5405 5407 5409 5410 5412 5414 5416 5418 5419 5421 5423 5424
5369 5368 5369 5369 5369 5371 5372 5372 5372 5371 5371 5371 5372 5375 5376 5376 5376 5376 5375 5376 5379 5382 5382 5385 5386 5388 5390 5392 5393 5394 5396 5398 5400 5402 5404 5406 5407 5409
5354 5354 5355 5356 5355 5355 5356 5357 5358 5358 5359 5359 5359 5361 5361 5362 5361 5360 5360 5361 5364 5366 5365 5369 5370 5373 5375 5376 5377 5379 5380 5382 5384 5386 5388 5390 5392 5393
5339 5340 5340 5341 5341 5341 5342 5343 5343 5344 5345 5345 5346 5347 5347 5347 5346 5346 5345 5346 5347 5348 5348 5351 5354 5356 5358 5360 5361 5362 5364 5365 5367 5369 5371 5373 5375 5377
5325 5326 5327 5327 5328 5328 5328 5328 5330 5331 5330 5331 5332 5332 5332 5332 5331 5329 5328 5328 5331 5332 5332 5333 5337 5338 5341 5344 5345 5346 5347 5348 5350 5352 5354 5356 5358 5360
5310 5311 5313 5314 5314 5314 5314 5315 5315 5317 5316 5317 5317 5317 5317 5317 5316 5315 5315 5314 5315 5316 5317 5316 5318 5318 5323 5328 5329 5328 5329 5330 5332 5335 5337 5339 5341 5342
5296 5297 5298 5299 5301 5301 5301 5302 5303 5302 5301 5301 5301 5301 5301 5301 5301 5301 5300 5300 5300 5302 5303 5300 5301 5301 5303 5310 5312 5312 5313 5314 5316 5318 5319 5321 5323 5325
5281 5282 5284 5285 5286 5286 5287 5288 5288 5287 5285 5285 5285 5286 5286 5286 5286 5286 5285 5285 5286 5287 5287 5286 5286 5287 5288 5291 5295 5297 5297 5297 5298 5300 5302 5304 5306 5308
5266 5267 5269 5270 5270 5270 5271 5272 5271 5269 5269 5269 5270 5271 5271 5270 5269 5269 5269 5269 5270 5270 5271 5271 5272 5272 5273 5275 5278 5280 5280 5282 5282 5284 5286 5287 5290 5292
5251 5252 5253 5254 5254 5254 5254 5254 5253 5253 5253 5253 5254 5254 5254 5253 5253 5254 5254 5254 5254 5255 5255 5255 5256 5257 5258 5259 5261 5263 5264 5266 5268 5268 5270 5273 5275 5277
5235 5235 5235 5236 5236 5236 5236 5236 5236 5236 5236 5237 5237 5237 5237 5237 5238 5238 5238 5238 5239 5240 5241 5241 5241 5242 5243 5244 5245 5248 5249 5251 5253 5253 5254 5258 5262 5263
5218 5218 5219 5219 5220 5220 5220 5220 5220 5220 5220 5220 5220 5220 5221 5221 5222 5223 5223 5224 5225 5226 5227 5227 5226 5226 5228 5230 5232 5234 5236 5237 5238 5239 5239 5242 5248 5251
5201 5202 5203 5203 5203 5203 5203 5203 5204 5204 5204 5204 5204 5204 5205 5206 5207 5208 5208 5209 5210 5212 5213 5213 5213 5213 5214 5218 5221 5221 5221 5223 5224 5225 5226 5229 5234 5240
5185 5186 5187 5187 5187 5187 5187 5188 5188 5189 5189 5189 5189 5190 5190 5191 5192 5193 5194 5195 5197 5198 5199 5200 5200 5201 5202 5205 5206 5209 5210 5210 5212 5214 5216 5219 5222 5227
5170 5170 5170 5171 5171 5172 5173 5173 5174 5174 5174 5174 5175 5175 5176 5177 5179 5180 5182 5183 5184 5185 5187 5189 5191 5190 5189 5188 5190 5195 5198 5199 5201 5202 5205 5207 5210 5215
5155 5155 5155 5156 5157 5158 5159 5160 5160 5161 5161 5162 5162 5163 5164 5164 5166 5168 5170 5171 5172 5173 5175 5176 5177 5176 5176 5177 5179 5182 5185 5188 5190 5192 5194 5197 5198 5203
5141 5141 5141 5142 5143 5144 5145 5146 5147 5148 5149 5149 5150 5151 5152 5153 5154 5156 5158 5160 5161 5161 5162 5163 5163 5164 5164 5166 5168 5170 5172 5175 5178 5181 5184 5187 5190 5194